Regional Weather Roundup
Issued by NWS

Home | Current Version | Previous Version | Text Only | Print | Product List | Glossary Off
Versions: 1 2 3 4 5 6 7 8 9 10 11 12 13 14 15 16 17 18 19 20 21 22 23 24 25 26 27 28 29 30 31 32 33 34 35 36 37 38 39 40 41 42 43 44 45 46 47 48 49 50

000
ASUS43 KFSD 171910
RWRSD

WEATHER ROUNDUP FOR SOUTH DAKOTA
NATIONAL WEATHER SERVICE SIOUX FALLS SD
100 PM CST SUN DEC 17 2017

NOTE: "FAIR" INDICATES FEW OR NO CLOUDS BELOW 12,000 FEET WITH NO
SIGNIFICANT WEATHER AND/OR OBSTRUCTIONS TO VISIBILITY.


SDZ001>005-009-010-012>017-172000-
NORTHWEST AND NORTH CENTRAL SOUTH DAKOTA

CITY           SKY/WX    TMP DP  RH WIND       PRES   REMARKS
BUFFALO          N/A     38  27  64 S17       29.79F
FAITH            N/A     38  23  55 S12       29.90F
MOBRIDGE       SUNNY     40  25  55 S12       29.92F
$$

SDZ012>016-024>037-041>051-057-063-072>074-172000-
SOUTHWEST AND SOUTH CENTRAL SOUTH DAKOTA

CITY           SKY/WX    TMP DP  RH WIND       PRES   REMARKS
RAPID CTY ARPT MOSUNNY   40  26  57 S16       29.88F
PIERRE         CLOUDY    36  31  82 S6        29.97F
CUSTER         CLOUDY    25  22  88 W10G18    29.83F WCI  15
ELLSWORTH AFB  PTSUNNY   39  27  63 S14       29.86F
PHILIP         CLOUDY    39  29  67 S10       29.95F
PINE RIDGE     CLOUDY    38  28  67 SW12      29.93F
SPEARFISH      FAIR      34  27  75 NW5       29.87F WCI  30
WINNER         CLOUDY    41  32  70 SW3       29.99F
$$

SDZ004>011-016>023-039-040-172000-
NORTHEAST SOUTH DAKOTA

CITY           SKY/WX    TMP DP  RH WIND       PRES   REMARKS
ABERDEEN       CLOUDY    36  29  75 SW6       29.98F
WATERTOWN      CLOUDY    36  32  85 S8        29.96F
SISSETON         N/A     39  32  76 NW6       29.97F
$$

SDZ017-020-022-023-036>040-048>070-172000-
SOUTHEAST SOUTH DAKOTA

CITY           SKY/WX    TMP DP  RH WIND       PRES   REMARKS
SIOUX FALLS    PTSUNNY   36  29  75 N3        30.01F
HURON          CLOUDY    38  33  82 MISG      30.00F
CHAMBERLAIN    CLOUDY    40  34  79 W3        29.99F
MITCHELL       CLOUDY    38  33  82 SW3       30.02F
YANKTON        MOSUNNY   37  29  72 CALM      30.02F
$$

ABBREVIATIONS USED IN REMARKS
   TC - TEMPERATURE IN CELSIUS
  WCI - WIND CHILL INDEX
   HX - HEAT INDEX
  VSB - VISIBILITY





USA.gov is the U.S. government's official web portal to all federal, state and local government web resources and services.